Radiation Dose at Monitoring Post of Fukushima Daini Nuclear Power Station
Date,Time,MP-1(microSv/h),MP-2(microSv/h),MP-3(microSv/h),MP-4(microSv/h),MP-5(microSv/h),MP-6(microSv/h),MP-7(microSv/h),Wind Direction,Wind Velocity(m/s),Rain
2019/08/19,00:00,0.198,0.175,0.301,0.282,0.273,0.152,0.093,north-northeast,2.9,No
2019/08/19,00:10,0.198,0.175,0.305,0.286,0.271,0.151,0.092,north,3.2,No
2019/08/19,00:20,0.196,0.175,0.301,0.284,0.273,0.150,0.092,north,3.3,No
2019/08/19,00:30,0.196,0.176,0.301,0.282,0.274,0.150,0.093,north-northwest,4.3,No
2019/08/19,00:40,0.199,0.175,0.305,0.284,0.273,0.150,0.093,north-northwest,5.7,No
2019/08/19,00:50,0.197,0.175,0.302,0.286,0.272,0.150,0.092,north-northwest,5.4,No
2019/08/19,01:00,0.196,0.176,0.300,0.284,0.277,0.151,0.092,north-northwest,6.5,No
2019/08/19,01:10,0.198,0.175,0.303,0.282,0.274,0.151,0.093,north-northwest,6.2,No
2019/08/19,01:20,0.198,0.174,0.303,0.285,0.272,0.150,0.093,north-northwest,6.7,No
2019/08/19,01:30,0.197,0.176,0.301,0.283,0.273,0.151,0.093,northwest,6.4,No
2019/08/19,01:40,0.196,0.176,0.303,0.283,0.278,0.151,0.094,north-northwest,5.9,No
2019/08/19,01:50,0.198,0.174,0.304,0.285,0.273,0.149,0.093,north-northwest,5.0,No
2019/08/19,02:00,0.197,0.175,0.301,0.284,0.272,0.150,0.091,north-northwest,4.8,No
2019/08/19,02:10,0.196,0.175,0.300,0.283,0.274,0.150,0.092,north-northwest,4.8,No
2019/08/19,02:20,0.196,0.175,0.303,0.283,0.274,0.151,0.092,north-northwest,4.8,No
2019/08/19,02:30,0.199,0.174,0.304,0.285,0.273,0.148,0.092,north-northwest,4.8,No
2019/08/19,02:40,0.198,0.176,0.301,0.283,0.272,0.150,0.092,north-northwest,4.9,No
2019/08/19,02:50,0.196,0.174,0.301,0.283,0.274,0.150,0.092,north-northwest,4.5,No
2019/08/19,03:00,0.195,0.174,0.304,0.285,0.274,0.150,0.092,north-northwest,4.6,No
2019/08/19,03:10,0.198,0.173,0.302,0.285,0.272,0.150,0.092,north-northwest,4.4,No
2019/08/19,03:20,0.197,0.174,0.300,0.283,0.272,0.151,0.091,north-northwest,5.3,No
2019/08/19,03:30,0.195,0.174,0.303,0.283,0.275,0.151,0.092,north-northwest,5.3,No
2019/08/19,03:40,0.196,0.174,0.303,0.285,0.275,0.150,0.091,north-northwest,4.8,No
2019/08/19,03:50,0.200,0.175,0.301,0.283,0.273,0.151,0.091,north-northwest,4.4,No
2019/08/19,04:00,0.198,0.176,0.301,0.281,0.272,0.150,0.092,north-northwest,4.4,No
2019/08/19,04:10,0.196,0.174,0.304,0.284,0.275,0.150,0.093,north-northwest,4.6,No
2019/08/19,04:20,0.195,0.173,0.303,0.286,0.274,0.150,0.092,north-northwest,3.9,No
2019/08/19,04:30,0.198,0.174,0.300,0.281,0.271,0.151,0.091,north,2.9,No
2019/08/19,04:40,0.198,0.176,0.301,0.281,0.272,0.150,0.093,north,2.7,Yes
2019/08/19,04:50,0.196,0.174,0.304,0.286,0.276,0.150,0.092,north,2.8,Yes
2019/08/19,05:00,0.197,0.175,0.302,0.286,0.274,0.151,0.092,north-northeast,2.4,Yes
2019/08/19,05:10,0.197,0.175,0.300,0.281,0.272,0.152,0.092,north,2.3,No
2019/08/19,05:20,0.198,0.174,0.305,0.283,0.274,0.151,0.092,north-northeast,2.1,No
2019/08/19,05:30,0.195,0.174,0.303,0.286,0.276,0.150,0.093,north-northeast,1.9,No
2019/08/19,05:40,0.194,0.175,0.302,0.283,0.274,0.151,0.092,north-northeast,1.3,No
2019/08/19,05:50,0.198,0.175,0.301,0.280,0.271,0.150,0.091,northeast,1.8,No
2019/08/19,06:00,0.196,0.173,0.304,0.284,0.275,0.150,0.092,northeast,1.8,No
2019/08/19,06:10,0.196,0.173,0.302,0.284,0.274,0.150,0.091,northeast,1.3,No
2019/08/19,06:20,0.194,0.174,0.299,0.281,0.272,0.151,0.091,north-northeast,3.4,No
2019/08/19,06:30,0.197,0.174,0.302,0.280,0.271,0.150,0.091,north-northeast,2.5,No
2019/08/19,06:40,0.197,0.174,0.304,0.285,0.273,0.149,0.091,north,2.8,No
2019/08/19,06:50,0.196,0.173,0.302,0.286,0.275,0.149,0.092,north-northeast,3.2,No
2019/08/19,07:00,0.194,0.172,0.300,0.282,0.272,0.149,0.091,north-northeast,2.1,No
2019/08/19,07:10,0.194,0.173,0.298,0.281,0.270,0.149,0.091,northeast,2.6,No
2019/08/19,07:20,0.198,0.173,0.304,0.279,0.270,0.151,0.092,north-northeast,2.0,No
2019/08/19,07:30,0.197,0.175,0.303,0.284,0.270,0.150,0.092,northeast,1.8,No
2019/08/19,07:40,0.196,0.173,0.301,0.284,0.273,0.149,0.092,northeast,1.5,No
2019/08/19,07:50,0.195,0.174,0.299,0.281,0.275,0.150,0.091,north-northeast,2.4,No
2019/08/19,08:00,0.193,0.172,0.298,0.281,0.274,0.149,0.091,east,1.5,No
2019/08/19,08:10,0.193,0.173,0.303,0.280,0.271,0.149,0.091,northeast,1.2,No
2019/08/19,08:20,0.194,0.173,0.302,0.280,0.271,0.151,0.090,northeast,2.3,No
2019/08/19,08:30,0.195,0.172,0.301,0.279,0.271,0.150,0.091,north,2.1,No
2019/08/19,08:40,0.197,0.172,0.299,0.284,0.271,0.149,0.091,north-northeast,1.9,No
2019/08/19,08:50,0.197,0.173,0.300,0.284,0.271,0.149,0.092,northeast,2.0,No
2019/08/19,09:00,0.195,0.173,0.299,0.282,0.271,0.149,0.090,northeast,2.2,No
2019/08/19,09:10,0.195,0.172,0.299,0.283,0.271,0.149,0.091,north-northeast,2.2,No
2019/08/19,09:20,0.194,0.173,0.298,0.282,0.271,0.150,0.091,northeast,2.7,No
2019/08/19,09:30,0.195,0.174,0.300,0.282,0.272,0.150,0.092,northeast,2.3,No
2019/08/19,09:40,0.194,0.173,0.304,0.282,0.272,0.150,0.091,northeast,2.3,No
2019/08/19,09:50,0.194,0.174,0.304,0.281,0.274,0.150,0.092,northeast,1.3,No
2019/08/19,10:00,0.195,0.174,0.302,0.282,0.272,0.150,0.091,northeast,3.0,No
2019/08/19,10:10,0.195,0.173,0.300,0.283,0.273,0.151,0.091,north-northeast,2.8,No
2019/08/19,10:20,0.195,0.174,0.300,0.284,0.273,0.149,0.092,northeast,2.4,No
2019/08/19,10:30,0.195,0.174,0.299,0.283,0.272,0.150,0.091,northeast,2.0,No
2019/08/19,10:40,0.195,0.174,0.300,0.283,0.272,0.150,0.091,north-northeast,2.4,No
2019/08/19,10:50,0.195,0.174,0.301,0.283,0.272,0.150,0.092,north-northeast,3.4,No
2019/08/19,11:00,0.196,0.174,0.300,0.283,0.272,0.150,0.092,northeast,3.4,No
2019/08/19,11:10,0.195,0.174,0.301,0.284,0.272,0.150,0.091,northeast,3.2,No
2019/08/19,11:20,0.195,0.174,0.300,0.284,0.272,0.149,0.092,northeast,2.8,No
2019/08/19,11:30,0.196,0.174,0.302,0.284,0.271,0.150,0.092,northeast,3.7,No
2019/08/19,11:40,0.196,0.175,0.302,0.284,0.272,0.150,0.092,northeast,3.0,No
2019/08/19,11:50,0.196,0.175,0.302,0.283,0.272,0.149,0.092,northeast,3.1,No
2019/08/19,12:00,0.197,0.175,0.302,0.284,0.273,0.149,0.092,northeast,2.7,No
2019/08/19,12:10,0.195,0.174,0.301,0.284,0.271,0.151,0.091,east-northeast,2.6,No
2019/08/19,12:20,0.197,0.174,0.302,0.283,0.274,0.150,0.092,east-northeast,3.0,No
2019/08/19,12:30,0.195,0.175,0.302,0.282,0.271,0.150,0.092,east-northeast,3.3,No
2019/08/19,12:40,0.196,0.174,0.301,0.283,0.274,0.151,0.092,east,3.4,No
2019/08/19,12:50,0.197,0.174,0.302,0.282,0.272,0.150,0.092,east-northeast,2.7,No
2019/08/19,13:00,0.196,0.174,0.301,0.283,0.271,0.151,0.092,east-northeast,2.4,No
2019/08/19,13:10,0.196,0.175,0.301,0.282,0.272,0.150,0.092,northeast,2.2,No
2019/08/19,13:20,0.197,0.175,0.300,0.283,0.272,0.150,0.092,east,2.4,No
2019/08/19,13:30,0.196,0.174,0.301,0.285,0.272,0.150,0.092,east,2.8,No
2019/08/19,13:40,0.195,0.175,0.301,0.282,0.271,0.151,0.092,east-northeast,2.4,No
2019/08/19,13:50,0.195,0.173,0.301,0.283,0.272,0.149,0.092,east,2.9,No
2019/08/19,14:00,0.197,0.173,0.300,0.282,0.271,0.151,0.092,east-northeast,2.8,No
2019/08/19,14:10,0.196,0.174,0.301,0.283,0.272,0.149,0.091,east,2.5,No
2019/08/19,14:20,0.196,0.174,0.302,0.283,0.272,0.149,0.092,east,2.7,No
2019/08/19,14:30,0.196,0.174,0.302,0.284,0.272,0.150,0.092,east,2.0,No
2019/08/19,14:40,0.195,0.174,0.302,0.284,0.272,0.150,0.093,east,2.5,No
2019/08/19,14:50,0.195,0.174,0.301,0.284,0.272,0.151,0.092,east,2.1,No
2019/08/19,15:00,0.197,0.175,0.302,0.282,0.271,0.150,0.092,east,2.3,No
2019/08/19,15:10,0.196,0.175,0.302,0.283,0.272,0.151,0.091,east,2.1,No
2019/08/19,15:20,0.195,0.174,0.302,0.283,0.272,0.150,0.091,east-southeast,1.3,No
2019/08/19,15:30,0.195,0.175,0.302,0.282,0.272,0.151,0.091,east-southeast,2.4,No
2019/08/19,15:40,0.195,0.173,0.301,0.280,0.274,0.150,0.092,east,1.8,No
2019/08/19,15:50,0.195,0.175,0.301,0.282,0.272,0.149,0.092,east-southeast,0.8,No
2019/08/19,16:00,0.195,0.174,0.299,0.283,0.273,0.150,0.091,east,1.2,No
2019/08/19,16:10,0.193,0.173,0.299,0.285,0.271,0.150,0.091,east,1.6,No
2019/08/19,16:20,0.194,0.173,0.298,0.285,0.271,0.150,0.091,east-southeast,1.3,No
2019/08/19,16:30,0.194,0.173,0.301,0.284,0.272,0.150,0.090,east,1.6,No
2019/08/19,16:40,0.193,0.175,0.305,0.281,0.271,0.149,0.092,east,1.5,No
2019/08/19,16:50,0.194,0.176,0.303,0.280,0.272,0.150,0.093,east,1.4,No
2019/08/19,17:00,0.197,0.174,0.301,0.283,0.270,0.149,0.092,east-northeast,1.4,No
2019/08/19,17:10,0.198,0.174,0.299,0.285,0.272,0.150,0.091,east,1.5,No
2019/08/19,17:20,0.196,0.173,0.298,0.284,0.271,0.151,0.091,-,CALM,No
2019/08/19,17:30,0.196,0.174,0.303,0.283,0.269,0.151,0.092,-,CALM,No
2019/08/19,17:40,0.194,0.175,0.303,0.280,0.271,0.150,0.092,east-southeast,1.1,No
2019/08/19,17:50,0.196,0.174,0.303,0.285,0.275,0.149,0.092,east,0.7,No
2019/08/19,18:00,0.198,0.174,0.302,0.285,0.274,0.150,0.091,-,CALM,No
2019/08/19,18:10,0.196,0.175,0.301,0.284,0.271,0.151,0.092,east-northeast,0.7,No
2019/08/19,18:20,0.196,0.175,0.305,0.281,0.271,0.151,0.092,-,CALM,No
2019/08/19,18:30,0.196,0.172,0.303,0.284,0.273,0.149,0.092,-,CALM,No
2019/08/19,18:40,0.199,0.175,0.299,0.286,0.275,0.151,0.091,-,CALM,No
2019/08/19,18:50,0.196,0.175,0.301,0.282,0.273,0.151,0.091,-,CALM,No
2019/08/19,19:00,0.195,0.174,0.304,0.282,0.271,0.150,0.092,-,CALM,No
2019/08/19,19:10,0.196,0.173,0.301,0.285,0.273,0.150,0.091,-,CALM,No
2019/08/19,19:20,0.196,0.175,0.300,0.285,0.276,0.151,0.091,east,1.1,No
2019/08/19,19:30,0.196,0.175,0.302,0.283,0.273,0.150,0.092,east-northeast,0.9,No
2019/08/19,19:40,0.195,0.173,0.304,0.282,0.271,0.149,0.093,-,CALM,No
2019/08/19,19:50,0.194,0.174,0.301,0.284,0.270,0.149,0.091,-,CALM,No
2019/08/19,20:00,0.198,0.175,0.300,0.283,0.275,0.151,0.091,-,CALM,No
2019/08/19,20:10,0.197,0.173,0.301,0.282,0.274,0.151,0.091,-,CALM,No
2019/08/19,20:20,0.196,0.172,0.304,0.280,0.271,0.150,0.092,-,CALM,No
2019/08/19,20:30,0.193,0.176,0.301,0.284,0.269,0.149,0.091,east-northeast,1.4,No
2019/08/19,20:40,0.198,0.175,0.298,0.285,0.274,0.150,0.091,east-northeast,0.8,No
2019/08/19,20:50,0.197,0.174,0.303,0.283,0.274,0.150,0.091,northeast,1.3,No
2019/08/19,21:00,0.197,0.174,0.304,0.281,0.272,0.150,0.092,east-northeast,1.2,No
2019/08/19,21:10,0.193,0.176,0.300,0.284,0.269,0.149,0.091,east-northeast,1.5,No
2019/08/19,21:20,0.198,0.173,0.298,0.285,0.272,0.150,0.091,east-northeast,0.6,No
2019/08/19,21:30,0.197,0.173,0.304,0.282,0.275,0.150,0.091,northeast,0.7,No
2019/08/19,21:40,0.197,0.175,0.303,0.280,0.272,0.150,0.092,east-northeast,0.7,No
2019/08/19,21:50,0.194,0.175,0.300,0.284,0.269,0.150,0.092,-,CALM,No
2019/08/19,22:00,0.196,0.174,0.301,0.285,0.273,0.150,0.091,-,CALM,No
2019/08/19,22:10,0.197,0.173,0.303,0.282,0.274,0.149,0.091,northeast,1.0,No
2019/08/19,22:20,0.196,0.175,0.302,0.282,0.272,0.149,0.093,-,CALM,No
2019/08/19,22:30,0.194,0.173,0.300,0.285,0.270,0.150,0.091,-,CALM,No
2019/08/19,22:40,0.196,0.173,0.301,0.284,0.273,0.150,0.091,-,CALM,No
2019/08/19,22:50,0.197,0.175,0.305,0.282,0.275,0.149,0.092,east,1.1,No
2019/08/19,23:00,0.196,0.175,0.302,0.281,0.273,0.149,0.091,south-southeast,1.2,No
2019/08/19,23:10,0.195,0.174,0.300,0.284,0.270,0.151,0.091,south-southeast,1.0,No
2019/08/19,23:20,0.196,0.172,0.300,0.286,0.272,0.151,0.091,south,0.7,No
2019/08/19,23:30,0.196,0.175,0.304,0.283,0.274,0.149,0.092,south,1.3,No
2019/08/19,23:40,0.195,0.174,0.301,0.281,0.272,0.149,0.092,south-southeast,0.9,No
2019/08/19,23:50,0.194,0.173,0.300,0.283,0.270,0.151,0.091,southeast,1.2,Yes
